Regional Weather Roundup
Issued by NWS

Home | Current Version | Previous Version | Text Only | Print | Product List | Glossary On
Versions: 1 2 3 4 5 6 7 8 9 10 11 12 13 14 15 16 17 18 19 20 21 22 23 24 25 26 27 28 29 30 31 32 33 34 35 36 37 38 39 40 41 42 43 44 45 46 47 48 49 50
000
ASUS43 KDMX 221107
RWRIA

WEATHER ROUNDUP FOR IOWA
NATIONAL WEATHER SERVICE DES MOINES IA
600 AM CDT TUE JUL 22 2014

NOTE: "FAIR" INDICATES FEW OR NO CLOUDS BELOW 12,000 FEET WITH NO
SIGNIFICANT WEATHER AND/OR OBSTRUCTIONS TO VISIBILITY.

* - THESE STATIONS ARE NOT NWS STATIONS...THUS NOT UNDER NWS
QUALITY CONTROL.  THEY ALSO DO NOT REPORT WEATHER SUCH
AS PRECIPITATION OR FOG.

IAZ001>003-012>014-020>022-031>034-043>046-221200-
   NORTHWEST IOWA

CITY           SKY/WX    TMP DP  RH WIND       PRES   REMARKS
CARROLL *      CLEAR     79  72  78 W7        29.89R HX  82
CHEROKEE *     CLEAR     75  75 100 CALM      29.91R
DENISON *      CLEAR     79  73  83 SW5       29.89R HX  82
LE MARS *      PTCLDY    77  75  94 NW16      29.97R
ORANGE CITY *  PTCLDY    77  73  88 NW17      29.99R FOG
SHELDON *      MOCLDY    73  73 100 NW9       29.97R FOG
SIOUX CITY     CLEAR     79  73  82 NW18G26   29.92R HX  82
SPENCER        CLEAR     74  72  93 NW7       29.91S FOG
STORM LAKE *   CLEAR     75  75 100 W9        29.92R
$$

IAZ055>058-069>071-079>083-090>094-221200-
   SOUTHWEST IOWA

CITY           SKY/WX    TMP DP  RH WIND       PRES   REMARKS
ATLANTIC *     CLEAR     77  73  88 S7        29.92F
AUDUBON *      CLEAR     82  75  78 S12       29.92S HX  89
CLARINDA *     CLEAR     75  73  94 S5        29.97S
COUNCIL BLFS *   N/A     79  73  83 S8        29.93R HX  82
CRESTON *      CLEAR     75  75 100 SW8       29.98R
HARLAN  *      CLEAR     77  73  88 S8        29.95S
LAMONI         MOCLDY    77  73  87 S13       29.98R
RED OAK *      PTCLDY    73  72  94 CALM      29.95R
SHENANDOAH *   CLEAR     73  72  94 S7        29.95S
$$

IAZ047>049-059>061-072>074-084-221200-
   CENTRAL IOWA

CITY           SKY/WX    TMP DP  RH WIND       PRES   REMARKS
AMES           CLOUDY    78  74  87 S10       29.92R HX  81
ANKENY *       CLEAR     81  75  83 S10       29.93R HX  86
CHARITON *     CLOUDY    77  73  88 S9        29.96R
DES MOINES     MOCLDY    81  74  79 S13       29.92R HX  86
GRINNELL*      CLOUDY    75  70  83 S10G16    29.94S
KNOXVILLE *    CLOUDY    79  73  83 S12       29.94R HX  82
MARSHALLTOWN   MOCLDY    77  73  87 S12       29.91S
PELLA *        CLOUDY    77  72  83 S9        29.96R
PERRY *          N/A     84  64  51 SW13      29.90S HX  86
$$

IAZ004>006-015-016-023>025-035-036-221200-
   NORTH CENTRAL IOWA

CITY           SKY/WX    TMP DP  RH WIND       PRES   REMARKS
ALGONA *       CLEAR     73  73 100 W5  4 S12G17    29.93S
WATERLOO       PTCLDY    77  71  82 S13       29.89S
$$

IAZ064-065-067-068-078-221200-
   EAST CENTRAL IOWA

CITY           SKY/WX    TMP DP  RH WIND       PRES   REMARKS
DAVENPORT      PTCLDY    73  66  78 S12       29.99F HAZE
IOWA CITY      MOCLDY    74  68  81 S8        29.97S
MT. PLEASANT * PTCLDY    73  66  78 S9        30.00F
MUSCATINE *    PTCLDY    73  68  83 S10       29.99S
QUAD CITIES    CLEAR     73  66  78 S10       29.99F
$$

IAZ062-063-075>077-085>089-095>099-221200-
   SOUTHEAST IOWA

CITY           SKY/WX    TMP DP  RH WIND       PRES   REMARKS
BURLINGTON     PTCLDY    72  68  87 S10       30.02R
FAIRFIELD *    MOCLDY    75  68  78 S10       29.98F
FORT MADISON * MOCLDY    73  70  88 S7        30.03S
KEOKUK *       MOCLDY    73  68  83 S9        30.02      29.91R FOG
CLARION *      CLEAR     75  73  94 S7        29.89R
ESTHERVILLE    CLEAR     76  75  97 NW8       29.91R FOG
FORT DODGE *   PTCLDY    75  72  88 S5        29.90R
MASON CITY     CLEAR     74  74 100 S6        29.90R FOG
FOREST CITY *  CLEAR     73  73 100 CALM      29.89R FOG
IOWA FALLS *     N/A     75  73  94 S7        29.92R FOG
$$

IAZ007>011-017>019-026>030-037>042-050>054-066-221200-
   NORTHEAST IOWA

CITY           SKY/WX    TMP DP  RH WIND       PRES   REMARKS
CEDAR RAPIDS   MOCLDY    74  67  78 S10       29.94S
CHARLES CITY * CLEAR     75  73  94 S10       29.90S
DECORAH *      CLEAR     73  70  88 S8G14     29.90S
DUBUQUE        PTCLDY    71  68  90 S14       29.96F
MONTICELLO *   CLEAR     73  68  83 S8        29.95S
OELWEIN *      CLEAR     73  72  9S
OSKALOOSA *      N/A     75  70  83 S10       29.97S
CENTERVILLE *  CLEAR     75  72  88 S9        30.00S
OTTUMWA        MOCLDY    75  69  81 S12       29.96S
WASHINGTON *   MOCLDY    73  68  83 S13       29.97F
$$

ABBREVIATIONS USED IN REMARKS
   TC - TEMPERATURES IN CELSIUS
  WCI - WIND CHILL INDEX
   HX - HEAT INDEX
  VSB - VISIBILITY
$$



USA.gov is the U.S. government's official web portal to all federal, state and local government web resources and services.